CW8081 Thessaloniki GR current weather conditions

sailwx.info

Wind from 256

Air temperature 25.6° C
Dewpoint 13.1° C

Last reported at 2014-Oct-01 13:41 UTC.
Time now 2014-Oct-01 14:27 UTC

Location: N 40°34' E 022°58'.
View on Google Maps.

See reports from other nearby stations

  
Tides and Currents Weather Stations Pressure Air Temp Water Temp Dewpoint Dewpoint Depression Visibility Wind Speed Wind Dir Waves Ship Positions
date/time (UTC)wind fromknots sea level pressurealtimeterstation pressurevisibilityair tempwater tempwave heightnotes
2014-Oct-01 13:41 256 25.6
2014-Oct-01 13:31 265 25.6
2014-Oct-01 13:11 217 25.0
2014-Oct-01 13:01 281 25.6
2014-Oct-01 12:41 269 25.0
2014-Oct-01 12:31 202 24.4
2014-Oct-01 12:11 222 24.4
2014-Oct-01 12:01 242 24.4
2014-Oct-01 11:41 233 23.3
2014-Oct-01 11:31 188 0 gusting 7 23.3
2014-Oct-01 11:11 213 3 gusting 7 22.8
2014-Oct-01 11:01 205 5 gusting 6 22.8
2014-Oct-01 10:41 205 23.3
2014-Oct-01 10:31 275 4 gusting 7 22.8
2014-Oct-01 10:11 214 2 gusting 6 22.2
2014-Oct-01 10:01 273 4 gusting 7 22.2
2014-Oct-01 09:41 216 5 gusting 6 22.2
2014-Oct-01 09:31 214 5 gusting 6 21.7
2014-Oct-01 09:11 227 3 gusting 6 21.7
2014-Oct-01 09:01 235 4 gusting 6 21.1
2014-Oct-01 08:41 219 4 gusting 6 20.0
2014-Oct-01 08:31 214 2 gusting 7 20.0
2014-Oct-01 08:11 241 19.4
2014-Oct-01 08:01 222 0 gusting 6 18.9
2014-Oct-01 07:41 205 2 gusting 5 18.3
2014-Oct-01 07:31 205 18.3
2014-Oct-01 07:11 217 17.8
2014-Oct-01 07:01 221 17.2
2014-Oct-01 06:41 211 16.7
2014-Oct-01 06:31 198 16.1
2014-Oct-01 06:11 211 15.0
2014-Oct-01 06:01 211 15.0
2014-Oct-01 05:41 212 14.4
2014-Oct-01 05:31 213 13.9
2014-Oct-01 05:11 213 13.9
2014-Oct-01 05:01 213 13.3
2014-Oct-01 04:41 213 13.3
2014-Oct-01 04:31 213 13.3
2014-Oct-01 04:11 213 13.3
2014-Oct-01 04:01 213 13.3
2014-Oct-01 03:41 213 13.9
2014-Oct-01 03:31 213 13.9
2014-Oct-01 03:11 213 13.9
2014-Oct-01 03:01 213 13.9
2014-Oct-01 02:41 213 13.9
2014-Oct-01 02:31 213 13.9
2014-Oct-01 02:11 213 13.9
2014-Oct-01 02:01 213 13.9
2014-Oct-01 01:41 213 13.9
2014-Oct-01 01:31 213 13.9
2014-Oct-01 01:11 213 14.4
2014-Oct-01 01:01 213 14.4
2014-Oct-01 00:41 213 14.4
2014-Oct-01 00:31 213 14.4
2014-Oct-01 00:11 214 14.4
2014-Oct-01 00:01 214 14.4
2014-Sep-30 23:41 213 15.0
2014-Sep-30 23:31 213 15.0
2014-Sep-30 23:11 214 15.0
2014-Sep-30 23:01 213 15.0
2014-Sep-30 22:41 213 15.0
2014-Sep-30 22:31 213 15.0
2014-Sep-30 22:11 213 15.6
2014-Sep-30 22:01 213 16.1
2014-Sep-30 21:41 213 16.1
2014-Sep-30 21:31 213 16.7
2014-Sep-30 21:11 213 17.2
2014-Sep-30 21:01 213 17.2
2014-Sep-30 20:41 213 17.8
2014-Sep-30 20:31 213 17.8
2014-Sep-30 20:11 215 0 gusting 2 17.8
2014-Sep-30 20:01 215 17.8
2014-Sep-30 19:41 209 17.8
2014-Sep-30 19:31 209 17.8
2014-Sep-30 19:11 210 17.8
2014-Sep-30 19:01 211 17.8
2014-Sep-30 18:41 212 18.3
2014-Sep-30 18:31 212 18.9
2014-Sep-30 18:11 217 19.4
2014-Sep-30 18:01 217 19.4
2014-Sep-30 17:41 217 20.0
2014-Sep-30 17:31 217 20.0
2014-Sep-30 17:11 239 20.0
2014-Sep-30 17:01 241 20.0
2014-Sep-30 16:41 241 20.6
2014-Sep-30 16:31 241 21.1
2014-Sep-30 16:11 241 21.7
2014-Sep-30 16:01 241 0 gusting 4 21.7
2014-Sep-30 15:41 227 1 gusting 4 22.2
2014-Sep-30 15:31 229 2 gusting 6 22.8
2014-Sep-30 15:11 240 22.8
2014-Sep-30 15:01 280 22.8
2014-Sep-30 14:41 229 22.8
2014-Sep-30 14:31 259 22.8
2014-Sep-30 14:11 231 23.3
2014-Sep-30 14:01 227 23.3
2014-Sep-30 13:41 262 23.3
2014-Sep-30 13:31 194 23.3
2014-Sep-30 13:11 232 23.3
2014-Sep-30 13:01 248 23.3
2014-Sep-30 12:41 276 23.3
2014-Sep-30 12:31 241 23.3
2014-Sep-30 12:11 274 3 gusting 6 22.8
2014-Sep-30 12:01 227 4 gusting 8 22.8
2014-Sep-30 11:41 215 5 gusting 6 22.2
2014-Sep-30 11:31 215 5 gusting 8 22.8
2014-Sep-30 11:11 236 4 gusting 8 22.2
2014-Sep-30 11:01 209 4 gusting 6 22.2
2014-Sep-30 10:41 259 2 gusting 6 21.7
2014-Sep-30 10:31 198 4 gusting 6 21.7
2014-Sep-30 10:11 271 2 gusting 6 21.1
2014-Sep-30 10:01 259 3 gusting 7 21.1
2014-Sep-30 09:41 275 4 gusting 6 20.6
2014-Sep-30 09:31 242 2 gusting 6 20.6
2014-Sep-30 09:11 217 4 gusting 6 20.0
2014-Sep-30 09:01 221 6 gusting 7 19.4
2014-Sep-30 08:41 256 5 gusting 7 18.9
2014-Sep-30 08:31 262 3 gusting 7 18.9
2014-Sep-30 08:11 230 3 gusting 6 17.8
2014-Sep-30 08:01 205 5 gusting 6 17.8
2014-Sep-30 07:41 240 1 gusting 5 17.2
2014-Sep-30 07:31 200 3 gusting 6 17.2
2014-Sep-30 07:11 207 0 gusting 2 16.7
2014-Sep-30 07:01 209 1 gusting 5 16.1
2014-Sep-30 06:41 213 2 gusting 5 15.6
2014-Sep-30 06:31 200 2 gusting 5 15.6
2014-Sep-30 06:11 221 0 gusting 4 15.0
2014-Sep-30 06:01 210 0 gusting 4 15.0
2014-Sep-30 04:41 172 1 gusting 2 13.3
2014-Sep-30 04:31 145 13.3
2014-Sep-30 04:11 145 13.3
2014-Sep-30 04:01 145 13.3
2014-Sep-30 03:41 145 13.3
2014-Sep-30 03:31 145 13.3
2014-Sep-30 03:11 145 13.9
2014-Sep-30 03:01 145 13.9
2014-Sep-30 02:41 145 13.9
2014-Sep-30 02:31 146 13.3
2014-Sep-30 02:11 146 13.9
2014-Sep-30 02:01 146 13.9
2014-Sep-30 01:41 146 13.9
2014-Sep-30 01:31 146 13.9
2014-Sep-30 01:11 146 14.4
2014-Sep-30 01:01 146 15.0
2014-Sep-30 00:41 146 15.0
2014-Sep-30 00:31 146 15.0
2014-Sep-30 00:11 148 15.0
2014-Sep-30 00:01 148 15.0
2014-Sep-29 23:41 148 15.6
2014-Sep-29 23:31 148 0 gusting 2 16.1
2014-Sep-29 23:11 095 16.1
2014-Sep-29 23:01 094 16.1
2014-Sep-29 22:41 095 16.1
2014-Sep-29 22:31 095 16.1
2014-Sep-29 22:11 095 0 gusting 2 16.7
2014-Sep-29 22:01 099 16.7
2014-Sep-29 21:41 099 16.1
2014-Sep-29 21:31 096 16.1
2014-Sep-29 21:11 095 16.1
2014-Sep-29 21:01 096 16.1
2014-Sep-29 20:41 094 16.1
2014-Sep-29 20:31 094 16.1
2014-Sep-29 19:31 084 17.8
2014-Sep-29 19:11 084 17.8
2014-Sep-29 19:01 085 17.8
2014-Sep-29 18:41 083 18.3
2014-Sep-29 18:31 101 18.3
2014-Sep-29 18:11 094 18.9
2014-Sep-29 18:01 095 18.9
2014-Sep-29 17:41 091 0 gusting 2 19.4
2014-Sep-29 17:31 227 19.4
2014-Sep-29 17:11 228 20.0
2014-Sep-29 17:01 227 20.6
2014-Sep-29 16:41 227 0 gusting 4 20.6
2014-Sep-29 16:31 225 21.1
2014-Sep-29 16:11 252 0 gusting 6 21.7
2014-Sep-29 16:01 227 0 gusting 6 21.7
2014-Sep-29 15:41 244 2 gusting 7 22.2
2014-Sep-29 15:31 235 5 gusting 8 22.2
2014-Sep-29 15:01 221 3 gusting 6 22.8
2014-Sep-29 14:41 225 2 gusting 6 22.8
2014-Sep-29 14:31 232 5 gusting 6 22.8
2014-Sep-29 14:11 225 4 gusting 7 22.8
2014-Sep-29 14:01 232 5 gusting 8 22.8